Regional Weather Roundup
Issued by NWS

Home | Current Version | Previous Version | Text Only | Print | Product List | Glossary Off
Versions: 1 2 3 4 5 6 7 8 9 10 11 12 13 14 15 16 17 18 19 20 21 22 23 24 25 26 27 28 29 30 31 32 33 34 35 36 37 38 39 40 41 42 43 44 45 46 47 48 49 50

000
ASUS45 KBOI 200010
RWRID
WEATHER ROUNDUP FOR IDAHO
NATIONAL WEATHER SERVICE BOISE ID
600 PM MDT FRI SEP 19 2014

NOTE: "FAIR" INDICATES FEW OR NO CLOUDS BELOW 12000 FEET
WITH NO SIGNIFICANT WEATHER AND/OR OBSTRUCTIONS TO VISIBILITY

IDZ012-014-200100-
SOUTHWEST IDAHO


CITY           SKY/WX    TMP DP  RH WIND       PRES   REMARKS
BOISE          SUNNY     79  45  29 W10       30.01S
CALDWELL       SUNNY     79  46  31 CALM      30.02S
MOUNTAIN HOME  SUNNY     81  43  25 NW17      30.00F
$$

IDZ016-017-200100-
SOUTHCENTRAL IDAHO


CITY           SKY/WX    TMP DP  RH WIND       PRES   REMARKS
BURLEY         SUNNY     74  47  38 W12       30.04F
JEROME         SUNNY     77  42  28 SW12      30.05F
TWIN FALLS     SUNNY     78  42  27 W10       30.06F
$$

IDZ019>023-200100-
SOUTHEAST IDAHO


CITY           SKY/WX    TMP DP  RH WIND       PRES   REMARKS
IDAHO FALLS    SUNNY     79  38  22 SW21      30.05S
POCATELLO      SUNNY     78  40  25 W13       30.06S
REXBURG        SUNNY     77  39  25 SW10      30.05S
$$

IDZ006-010-011-018-031-032-200100-
CENTRAL IDAHO MOUNTAINS


CITY           SKY/WX    TMP DP  RH WIND       PRES   REMARKS
MCCALL         SUNNY     73  41  31 W6        30.11R
HAILEY         SUNNY     75  43  31 S7        30.07F
STANLEY          N/A     72  36  26 NW7       30.17R
SALMON         SUNNY     77  45  31 SW3       29.98S
CHALLIS        SUNNY     79  37  22 E3        30.03R
$$

IDZ002-004-006-007-026-200100-
NORTHERN IDAHO


CITY           SKY/WX    TMP DP  RH WIND       PRES   REMARKS
LEWISTON       PTSUNNY   79  48  33 CALM      30.01F
LOWELL           N/A     73  52  47 CALM      30.01R
COEUR D`ALENE  MOSUNNY   73  46  38 SW10      30.03F
MULLAN PASS    PTSUNNY   55  45  68 VRB5      30.20R
$$



USA.gov is the U.S. government's official web portal to all federal, state and local government web resources and services.